Time,TemperatureF,DewpointF,PressureIn,WindDirection,WindDirectionDegrees,WindSpeedMPH,WindSpeedGustMPH,Humidity,HourlyPrecipIn,Conditions,Clouds,dailyrainin,SoftwareType,DateUTC
2013-02-22 00:12:00,5.0,-99.9,30.40,SSE,168,2.0,3.0,-999,-99.99,,,-99.99,,2013-02-22 05:12:00,
2013-02-22 01:12:00,4.0,-99.9,30.37,NW,304,3.0,5.0,-999,-99.99,,,-99.99,,2013-02-22 06:12:00,
2013-02-22 01:42:00,7.0,-99.9,30.36,WNW,295,2.0,3.0,-999,-99.99,,,-99.99,,2013-02-22 06:42:00,
2013-02-22 02:42:00,11.0,-99.9,30.35,ESE,103,4.0,7.0,-999,-99.99,,,-99.99,,2013-02-22 07:42:00,
2013-02-22 03:42:00,10.0,-99.9,30.34,ESE,111,5.0,7.0,-999,-99.99,,,-99.99,,2013-02-22 08:42:00,
2013-02-22 04:11:00,12.0,-99.9,30.33,ESE,121,6.0,10.0,-999,-99.99,,,-99.99,,2013-02-22 09:11:00,
2013-02-22 04:42:00,13.0,-99.9,30.33,ESE,117,9.0,14.0,-999,-99.99,,,-99.99,,2013-02-22 09:42:00,
2013-02-22 05:11:00,12.0,-99.9,30.32,ESE,116,13.0,19.0,-999,-99.99,,,-99.99,,2013-02-22 10:11:00,
2013-02-22 05:42:00,12.0,-99.9,30.30,ESE,109,10.0,16.0,-999,-99.99,,,-99.99,,2013-02-22 10:42:00,
2013-02-22 06:11:00,12.0,-99.9,30.29,ESE,108,9.0,19.0,-999,-99.99,,,-99.99,,2013-02-22 11:11:00,
2013-02-22 06:42:00,11.0,-99.9,30.29,ESE,102,13.0,20.0,-999,-99.99,,,-99.99,,2013-02-22 11:42:00,
2013-02-22 07:11:00,11.0,-99.9,30.28,ESE,103,13.0,20.0,-999,-99.99,,,-99.99,,2013-02-22 12:11:00,
2013-02-22 08:11:00,11.0,-99.9,30.27,ESE,102,11.0,17.0,-999,-99.99,,,-99.99,,2013-02-22 13:11:00,
2013-02-22 08:42:00,11.0,-99.9,30.26,ESE,102,11.0,15.0,-999,-99.99,,,-99.99,,2013-02-22 13:42:00,
2013-02-22 09:11:00,12.0,-99.9,30.25,ESE,104,10.0,15.0,-999,-99.99,,,-99.99,,2013-02-22 14:11:00,
2013-02-22 09:42:00,12.0,-99.9,30.22,East,101,11.0,16.0,-999,-99.99,,,-99.99,,2013-02-22 14:42:00,
2013-02-22 10:12:00,12.0,-99.9,30.20,ESE,105,10.0,14.0,-999,-99.99,,,-99.99,,2013-02-22 15:12:00,
2013-02-22 11:12:00,14.0,-99.9,30.17,East,91,12.0,19.0,-999,-99.99,,,-99.99,,2013-02-22 16:12:00,
2013-02-22 11:42:00,15.0,-99.9,30.15,ESE,108,10.0,17.0,-999,-99.99,,,-99.99,,2013-02-22 16:42:00,
2013-02-22 12:42:00,18.0,-99.9,30.11,ESE,102,9.0,15.0,-999,-99.99,,,-99.99,,2013-02-22 17:42:00,
2013-02-22 13:12:00,19.0,-99.9,30.10,ESE,109,9.0,15.0,-999,-99.99,,,-99.99,,2013-02-22 18:12:00,
2013-02-22 15:11:00,22.0,-99.9,30.04,ESE,104,11.0,17.0,-999,-99.99,,,-99.99,,2013-02-22 20:11:00,
2013-02-22 15:42:00,23.0,-99.9,30.01,East,100,11.0,17.0,-999,-99.99,,,-99.99,,2013-02-22 20:42:00,
2013-02-22 16:11:00,23.0,-99.9,30.01,ESE,118,14.0,20.0,-999,-99.99,,,-99.99,,2013-02-22 21:11:00,
2013-02-22 17:11:00,24.0,-99.9,29.99,ESE,111,11.0,19.0,-999,-99.99,,,-99.99,,2013-02-22 22:11:00,
2013-02-22 17:42:00,25.0,-99.9,29.98,ESE,113,9.0,21.0,-999,-99.99,,,-99.99,,2013-02-22 22:42:00,
2013-02-22 18:42:00,25.0,-99.9,29.96,East,100,14.0,24.0,-999,-99.99,,,-99.99,,2013-02-22 23:42:00,
2013-02-22 19:11:00,26.0,-99.9,29.96,ESE,107,13.0,22.0,-999,-99.99,,,-99.99,,2013-02-23 00:11:00,
2013-02-22 20:11:00,26.0,-99.9,29.94,ESE,109,14.0,27.0,-999,-99.99,,,-99.99,,2013-02-23 01:11:00,
2013-02-22 20:42:00,26.0,-99.9,29.93,ESE,111,12.0,20.0,-999,-99.99,,,-99.99,,2013-02-23 01:42:00,
2013-02-22 21:11:00,26.0,-99.9,29.92,ESE,109,13.0,19.0,-999,-99.99,,,-99.99,,2013-02-23 02:11:00,
2013-02-22 22:11:00,27.0,-99.9,29.90,ESE,114,12.0,20.0,-999,-99.99,,,-99.99,,2013-02-23 03:11:00,
2013-02-22 22:42:00,27.0,-99.9,29.88,ESE,107,11.0,23.0,-999,-99.99,,,-99.99,,2013-02-23 03:42:00,
2013-02-22 23:11:00,27.0,-99.9,29.86,ESE,102,12.0,18.0,-999,-99.99,,,-99.99,,2013-02-23 04:11:00,
2013-02-22 23:42:00,28.0,-99.9,29.85,ESE,105,10.0,18.0,-999,-99.99,,,-99.99,,2013-02-23 04:42:00,